Regional Weather Roundup
Issued by NWS Grand Forks, ND

Home | Current Version | Previous Version | Graphics & Text | Print | Product List | Glossary On
Versions: 1 2 3 4 5 6 7 8 9 10 11 12 13 14 15 16 17 18 19 20 21 22 23 24 25 26 27 28 29 30 31 32 33 34 35 36 37 38 39 40 41 42 43 44 45 46 47 48 49 50
000
ASUS43 KFGF 211710
RWRFGF
PRAIRIE TO PINES  WEATHER ROUNDUP
NATIONAL WEATHER SERVICE EASTERN NORTH DAKOTA/GRAND FORKS ND
1200 PM CDT THU AUG 21 2014

 **SATELLITE DATA USED TO AUGMENT SKY COVER AT AUTOMATED STATIONS**
 *****  WEATHER ACROSS EASTERN NORTH DAKOTA  *****

CITY           SKY/WX    TMP DP  RH WIND       PRES   REMARKS
GRAND FORKS    CLOUDY    75  67  76 S6        29.77R
GRAND FRKS AFB CLOUDY    73  71  93 S1        29.79R
GRAND FRKS NWS   N/A     59 N/A N/A S3          N/A
DEVILS LAKE    CLOUDY    72  64  78 CALM      29.78R
FARGO          CLOUDY    73  68  84 E6        29.76S
WAHPETON ARPT  CLOUDY    73  66  78 CALM      29.77F
$$

 ***** WEATHER ACROSS CENTRAL AND WESTERN NORTH DAKOTA  *****

CITY           SKY/WX    TMP DP  RH WIND       PRES   REMARKS
BISMARCK       PTSUNNY   76  65  68 NW13      29.86S
MINOT          CLOUDY    70  63  78 NW9       29.86R
JAMESTOWN      CLOUDY    73  67  81 N7        29.79R
MINOT AFB      CLOUDY    66  66  99 NW12      29.86R
GARRISON         N/A     74  65  73 NW14      29.86S
WILLISTON      CLOUDY    67  59  75 N10       29.94R
DICKINSON      MOSUNNY   73  60  63 N10       29.92R
HETTINGER      MOSUNNY   75  62  64 NW9       29.94S
$$

 *****  OTHER AIRPORT OBSERVATIONS IN OUR AREA  *****

CITY           SKY/WX    TMP DP  RH WIND       PRES   REMARKS
WALHALLA         N/A     70  70 100 NE5       29.80S
GRAFTON AIRPOR CLOUDY    72  66  83 E5        29.79S
VALLEY CITY AR CLOUDY    73  73 100 E5        29.78S
CANDO          CLOUDY    72  66  83 NE3       29.81S
CAVALIER APRT  FAIR      73  66  78 E6        29.79S
GWINNER        MOSUNNY   79  70  73 SW7       29.78S
SHEYENNE NWR     N/A     79  69  72 W5        29.95
ROLLA          RAIN      66  66 100 NE7       29.85S
 ***** THE ABOVE OBSERVATIONS ARE NON NWS ARE NOT QUALITY
       CONTROLLED AND MAY MIS-REPORT RAIN FOR SNOW...
$$

  *****  WEATHER ACROSS NORTHERN MINNESOTA  *****

CITY           SKY/WX    TMP DP  RH WIND       PRES   REMARKS
FLAG ISLAND    CLOUDY    64  61  88 SE6       29.85S
WARROAD        CLOUDY    64  61  88 E7        29.85S
ROSEAU         CLOUDY    66  61  82 E8        29.83S
HALLOCK        CLOUDY    72  66  83 CALM      29.80S
THF RVR FALLS  PTSUNNY   73  66  78 SE8       29.79F
BAUDETTE       CLOUDY    66  61  84 E8        29.85F
WASKISH        CLOUDY    66  63  88 CALM      29.85S
CROOKSTON      PTSUNNY   75  66  73 SW9       29.78S
$$
  *****  WEATHER ACROSS CENTRAL AND WEST MINNESOTA  *****

CITY           SKY/WX    TMP DP  RH WIND       PRES   REMARKS
FOSSTON        PTSUNNY   73  64  73 S5        29.81S
BEMIDJI        CLOUDY    69  63  83 E8        29.82S
PARK RAPIDS    CLOUDY    74  65  73 SE8       29.81S
ELBOW LAKE     CLOUDY    72  69  91 S5        29.78R
WADENA         CLOUDY    72  66  83 E5        29.80S
DETROIT LAKES  CLOUDY    72  64  78 SE6       29.81S
MOORHEAD       PTSUNNY   73  72  94 S7        29.78S
FERGUS FALLS   CLOUDY    72  64  78 E3        29.78R
MORRIS MN      SUNNY     77  72  83 CALM      29.76R
STAPLES        CLOUDY    72  66  83 E6        29.81R
$$
  *****  WEATHER ELSEWHERE ACROSS MINNESOTA  *****

CITY           SKY/WX    TMP DP  RH WIND       PRES   REMARKS
DULUTH         CLOUDY    64  60  87 E14       29.88F
INTRNTL FALLS  PTSUNNY   69  60  73 E10       29.88S
ELY            CLOUDY    66  57  72 E8        29.92S
CLOQUET        CLOUDY    63  61  94 E10       29.87F FOG
WHEATON        MOSUNNY   73  68  83 SW3       29.78S
BRAINERD       CLOUDY    70  65  84 SE8       29.83R
HIBBING        PTSUNNY   72  61  68 SE16      29.88S
ALEXANDRIA     CLOUDY    73  69  87 SE7       29.80S
SAINT CLOUD    CLOUDY    73  68  84 E7        29.78R
MINNEAPOLIS    CLOUDY    78  70  76 SE10      29.78S
$$

  *****  WEATHER ACROSS SOUTH DAKOTA  *****

CITY           SKY/WX    TMP DP  RH WIND       PRES   REMARKS
SIOUX FALLS    MOSUNNY   85  74  69 W6        29.77S HX  92
BROOKINGS      NOT AVBL
WATERTOWN      SUNNY     79  70  74 W12       29.79R
HURON          MOSUNNY   80  68  66 NW13      29.80R
SISSETON         N/A     81  71  71 N10       29.75S
ABERDEEN       MOSUNNY   77  68  73 NW7       29.78S
MITCHELL       PTSUNNY   81  72  74 NW10      29.80S
PIERRE         MOSUNNY   79  64  60 NW12      29.86R
MOBRIDGE       SUNNY     76  66  71 N9        29.83R
RAPID CITY     SUNNY     75  57  53 NE9       29.98S
$$

  *****  SOME WEATHER IN NEARBY STATES *****

CITY           SKY/WX    TMP DP  RH WIND       PRES   REMARKS
GLASGOW MT     CLOUDY    68  59  73 N9        29.98R
GREAT FALLS MT CLOUDY    57  51  80 N8        30.09S
CHEYENNE WY    MOSUNNY   77  43  29 W14G25    30.15R
SCOTTSBLUFF NE SUNNY     80  55  42 VRB6      30.02S
OMAHA NE       PTSUNNY   82  68  62 SW8       29.82S
DES MOINES IA  CLOUDY    80  73  79 S7        29.88S
DAVENPORT IA   CLOUDY    79  71  76 SE6       29.93F
CHICAGO IL     CLOUDY    77  69  76 SW7       29.95R
EAU CLAIRE WI  PTSUNNY   74  69  85 E9        29.84F
LA CROSSE WI   CLOUDY    76  69  79 S7        29.84R
$$

  *****  SOME NATIONAL WEATHER *****

CITY           SKY/WX    TMP DP  RH WIND       PRES   REMARKS
LA GUARDIA NY  PTSUNNY   78  60  53 S10       30.04F
RALEIGH NC     MOSUNNY   88  68  51 NE3       30.08S HX  91
ATLANTA GA     MOSUNNY   88  71  57 NW10      30.17S HX  94
NEW ORLEANS LA PTSUNNY   92  76  59 NE5       30.13F HX 104
OKLAHOMA CITY  SUNNY     91  70  49 S16       29.98F HX  96
ALBUQUERQUE NM MOSUNNY   79  42  26 N3        30.18S
SALT LAKE CITY PTSUNNY   77  47  34 S13       30.09R
LOS ANGELES CA PTSUNNY   71  61  70 W7        29.97R
BOISE ID       PTSUNNY   69  43  38 W7        30.00S
SEATTLE WA     CLOUDY    57  49  74 SW7       30.06S
$$

*** WEATHER ACROSS MANITOBA...SASKATCHEWAN AND ONTARIO ***
                ***ONTARIO***

CITY           SKY/WX    TMP DP  RH WIND       PRES   REMARKS
GERALDTON      CLOUDY    66  61  82 SE6       30.00  FOG
THUNDER BAY    CLOUDY    68  61  77 SE7       29.97S
SIOUX LOOKOUT  CLOUDY    70  61  73 SE8       29.93F
TORONTO        PTSUNNY   75  64  69 N9        29.95F
BIG TROUT LK   MOSUNNY   75  61  60 S13       29.95F
PICKLE LAKE    CLOUDY    66  59  77 SE9       29.97F
DRYDEN         NOT AVBL
KENORA         CLOUDY    66  63  88 SE5       29.89S
$$
                *** MANITOBA***

CITY           SKY/WX    TMP DP  RH WIND       PRES   REMARKS
BRANDON        CLOUDY    68  64  88 VRB2      29.85S
DAUPHIN        CLOUDY    64  63  94 N12G18    29.86R FOG
ISLAND LAKE    PTSUNNY   79  63  57 S9        29.83F
PILOT MOUND      N/A     68  66  94 E6          N/A
THE PAS        CLOUDY    63  55  77 N14G22    29.92R
THOMPSON       LGT RAIN  54  54 100 N10       29.86
WINNIPEG       LGT RAIN  70  66  88 N3        29.82S
LYNN LAKE      CLOUDY    55  52  88 MISG      29.97R
CHURCHILL      CLOUDY    50  46  87 NW20      29.85R
GILLAM         CLOUDY    77  66  69 S6        29.77S
$$
                ***SASKATCHEWAN***

CITY           SKY/WX    TMP DP  RH WIND       PRES   REMARKS
ESTEVAN        CLOUDY    66  63  88 NW14      29.92R
KINDERSLEY     CLOUDY    57  50  77 N14       30.10R
LLOYDMINSTER   PTSUNNY   55  48  76 N9        30.14S
PRINCE ALBERT  PTSUNNY   64  57  77 NE10G17   30.03S
REGINA         PTSUNNY   66  57  72 N12G21    29.98R
YORKTON        CLOUDY    64  55  72 N18       29.93R
N. BATTLEFORD  CLOUDY    59  52  77 N10       30.11R
LA RONGE       CLOUDY    57  52  82 NW9       30.06R
SASKATOON      PTSUNNY   64  54  68 N10G18    30.06R
SWIFT CURRENT  NOT AVBL
$$
NOTE: THESE ARE AUTOMATED STATIONS WITH LIMITED QUALITY CONTROL
      "FAIR" INDICATES FEW OR NO CLOUDS BELOW 12,000 FEET WITH NO
      SIGNIFICANT WEATHER AND/OR OBSTRUCTIONS TO VISIBILITY.
      SKY/WX - SKY CONDITION AND SIGNIFICANT WEATHER.
      TMP - AIR TEMPERATURE.    DP   - DEWPOINT TEMPERATURE.
      RH  - RELATIVE HUMIDITY.  PRES - PRESSURE.
      HX  - HEAT INDEX.         WCI  - WIND CHILL INDEX.
$



USA.gov is the U.S. government's official web portal to all federal, state and local government web resources and services.